Location: Long Geng
(2.6167°N, 114.1333°E)
Time: 13:18:03
(UTC+00:00)

CZ-3 R/B - Pass Details

Date: 14 May 2021
Orbit: 392 x 10212 km, 28.3° (Epoch: 16 June)

Event Time Altitude Azimuth Distance (km) Brightness Sun altitude
Rises 19:27:23 0° 291° (WNW) 15,166 7.3 -39.2°
Reaches altitude 10° 19:47:16 10° 286° (WNW) 13,087 6.8 -34.7°
Enters shadow 20:10:08 24° 273° (W) 9,440 6.0 -29.5°
Exits shadow 20:16:15 28° 267° (W) 8,217 5.6 -28.1°
Maximum altitude 20:32:54 41° 223° (SW) 4,691 4.5 -24.2°
Drops below altitude 10° 20:45:01 10° 154° (SSE) 4,088 4.8 -21.4°
Sets 20:47:26 0° 145° (SE) 4,512 5.1 -20.9°
